Time,TemperatureF,DewpointF,PressureIn,WindDirection,WindDirectionDegrees,WindSpeedMPH,WindSpeedGustMPH,Humidity,HourlyPrecipIn,Conditions,Clouds,dailyrainin,SoftwareType,DateUTC
2013-01-24 00:05:00,16.9,9.7,30.31,SE,136,1.0,14.0,73,0.00,,,0.00,Wunderground v.1.13,2013-01-24 07:05:00,
2013-01-24 00:14:00,16.4,9.3,30.31,SE,136,0.0,14.0,73,0.00,,,0.00,Wunderground v.1.13,2013-01-24 07:14:00,
2013-01-24 00:19:00,16.2,9.1,30.31,SE,136,0.0,14.0,73,0.00,,,0.00,Wunderground v.1.13,2013-01-24 07:19:00,
2013-01-24 00:25:00,15.9,9.1,30.31,SE,136,0.0,14.0,74,0.00,,,0.00,Wunderground v.1.13,2013-01-24 07:25:00,
2013-01-24 00:30:00,15.6,8.8,30.31,SE,136,0.0,14.0,74,0.00,,,0.00,Wunderground v.1.13,2013-01-24 07:30:00,
2013-01-24 00:35:00,15.1,8.3,30.29,SE,136,0.0,14.0,74,0.00,,,0.00,Wunderground v.1.13,2013-01-24 07:35:00,
2013-01-24 00:39:00,14.9,8.4,30.29,SE,136,0.0,14.0,75,0.00,,,0.00,Wunderground v.1.13,2013-01-24 07:39:00,
2013-01-24 00:44:00,14.8,8.6,30.29,SE,136,0.0,14.0,76,0.00,,,0.00,Wunderground v.1.13,2013-01-24 07:44:00,
2013-01-24 00:49:00,14.8,8.6,30.30,SE,136,0.0,14.0,76,0.00,,,0.00,Wunderground v.1.13,2013-01-24 07:49:00,
2013-01-24 00:54:00,14.9,8.7,30.30,SE,136,0.0,14.0,76,0.00,,,0.00,Wunderground v.1.13,2013-01-24 07:54:00,
2013-01-24 01:00:00,14.9,9.0,30.30,SE,136,0.0,14.0,77,0.00,,,0.00,Wunderground v.1.13,2013-01-24 08:00:00,
2013-01-24 01:05:00,14.9,9.0,30.29,SE,136,0.0,14.0,77,0.00,,,0.00,Wunderground v.1.13,2013-01-24 08:05:00,
2013-01-24 01:14:00,14.8,8.9,30.29,SE,136,0.0,14.0,77,0.00,,,0.00,Wunderground v.1.13,2013-01-24 08:14:00,
2013-01-24 01:20:00,14.6,8.7,30.29,SE,136,0.0,14.0,77,0.00,,,0.00,Wunderground v.1.13,2013-01-24 08:20:00,
2013-01-24 01:25:00,14.8,9.2,30.29,SE,136,0.0,14.0,78,0.00,,,0.00,Wunderground v.1.13,2013-01-24 08:25:00,
2013-01-24 01:29:00,14.9,9.3,30.29,SE,136,0.0,14.0,78,0.00,,,0.00,Wunderground v.1.13,2013-01-24 08:29:00,
2013-01-24 01:34:00,15.1,9.2,30.30,SE,136,0.0,14.0,77,0.00,,,0.00,Wunderground v.1.13,2013-01-24 08:34:00,
2013-01-24 01:40:00,14.9,9.0,30.30,SE,137,0.0,14.0,77,0.00,,,0.00,Wunderground v.1.13,2013-01-24 08:40:00,
2013-01-24 01:45:00,14.8,8.9,30.30,SE,137,1.0,1.0,77,0.00,,,0.00,Wunderground v.1.13,2013-01-24 08:45:00,
2013-01-24 01:49:00,14.6,8.4,30.28,SE,136,1.0,1.0,76,0.00,,,0.00,Wunderground v.1.13,2013-01-24 08:49:00,
2013-01-24 01:54:00,14.3,8.1,30.28,SE,137,1.0,14.0,76,0.00,,,0.00,Wunderground v.1.13,2013-01-24 08:54:00,
2013-01-24 01:59:00,14.0,7.8,30.28,SE,137,1.0,1.0,76,0.00,,,0.00,Wunderground v.1.13,2013-01-24 08:59:00,
2013-01-24 02:04:00,13.6,7.4,30.28,SE,137,1.0,1.0,76,0.00,,,0.00,Wunderground v.1.13,2013-01-24 09:04:00,
2013-01-24 02:10:00,13.5,7.6,30.28,SE,137,0.0,14.0,77,0.00,,,0.00,Wunderground v.1.13,2013-01-24 09:10:00,
2013-01-24 02:15:00,13.3,7.4,30.28,SE,137,0.0,14.0,77,0.00,,,0.00,Wunderground v.1.13,2013-01-24 09:15:00,
2013-01-24 02:20:00,13.3,7.4,30.28,SE,137,0.0,14.0,77,0.00,,,0.00,Wunderground v.1.13,2013-01-24 09:20:00,
2013-01-24 02:25:00,13.1,7.2,30.28,SE,137,0.0,14.0,77,0.00,,,0.00,Wunderground v.1.13,2013-01-24 09:25:00,
2013-01-24 02:29:00,12.8,6.9,30.28,SE,137,0.0,14.0,77,0.00,,,0.00,Wunderground v.1.13,2013-01-24 09:29:00,
2013-01-24 02:34:00,12.8,6.9,30.28,SE,137,0.0,14.0,77,0.00,,,0.00,Wunderground v.1.13,2013-01-24 09:34:00,
2013-01-24 02:39:00,12.8,7.2,30.28,SE,137,0.0,14.0,78,0.00,,,0.00,Wunderground v.1.13,2013-01-24 09:39:00,
2013-01-24 02:45:00,12.9,7.3,30.28,SE,137,0.0,14.0,78,0.00,,,0.00,Wunderground v.1.13,2013-01-24 09:45:00,
2013-01-24 02:50:00,13.1,7.5,30.28,SE,137,0.0,14.0,78,0.00,,,0.00,Wunderground v.1.13,2013-01-24 09:50:00,
2013-01-24 02:59:00,13.1,7.5,30.28,SE,137,1.0,14.0,78,0.00,,,0.00,Wunderground v.1.13,2013-01-24 09:59:00,
2013-01-24 03:05:00,13.1,7.5,30.27,SE,138,1.0,14.0,78,0.00,,,0.00,Wunderground v.1.13,2013-01-24 10:05:00,
2013-01-24 03:10:00,13.3,7.7,30.27,SE,138,2.0,14.0,78,0.00,,,0.00,Wunderground v.1.13,2013-01-24 10:10:00,
2013-01-24 03:20:00,13.3,7.7,30.26,SE,140,2.0,14.0,78,0.00,,,0.00,Wunderground v.1.13,2013-01-24 10:20:00,
2013-01-24 03:25:00,13.5,7.6,30.26,SE,141,2.0,2.0,77,0.00,,,0.00,Wunderground v.1.13,2013-01-24 10:25:00,
2013-01-24 03:30:00,13.6,7.7,30.26,SE,141,1.0,14.0,77,0.00,,,0.00,Wunderground v.1.13,2013-01-24 10:30:00,
2013-01-24 03:35:00,13.8,7.9,30.26,SE,141,1.0,1.0,77,0.00,,,0.00,Wunderground v.1.13,2013-01-24 10:35:00,
2013-01-24 03:44:00,14.0,8.1,30.26,SSE,168,1.0,1.0,77,0.00,,,0.00,Wunderground v.1.13,2013-01-24 10:44:00,
2013-01-24 03:49:00,14.3,8.4,30.27,SSE,163,2.0,14.0,77,0.00,,,0.00,Wunderground v.1.13,2013-01-24 10:49:00,
2013-01-24 03:54:00,14.4,8.5,30.27,SSE,162,2.0,14.0,77,0.00,,,0.00,Wunderground v.1.13,2013-01-24 10:54:00,
2013-01-24 04:00:00,14.8,8.9,30.27,SSE,159,3.0,3.0,77,0.00,,,0.00,Wunderground v.1.13,2013-01-24 11:00:00,
2013-01-24 04:10:00,15.1,9.2,30.26,SSE,155,3.0,14.0,77,0.00,,,0.00,Wunderground v.1.13,2013-01-24 11:10:00,
2013-01-24 04:14:00,15.1,9.2,30.26,SSE,166,4.0,4.0,77,0.00,,,0.00,Wunderground v.1.13,2013-01-24 11:14:00,
2013-01-24 04:19:00,15.2,9.3,30.24,SSE,155,4.0,14.0,77,0.00,,,0.00,Wunderground v.1.13,2013-01-24 11:19:00,
2013-01-24 04:24:00,15.2,9.3,30.24,South,184,4.0,4.0,77,0.00,,,0.00,Wunderground v.1.13,2013-01-24 11:24:00,
2013-01-24 04:30:00,15.2,9.3,30.24,South,175,4.0,14.0,77,0.00,,,0.00,Wunderground v.1.13,2013-01-24 11:30:00,
2013-01-24 04:35:00,15.1,9.2,30.23,South,171,5.0,5.0,77,0.00,,,0.00,Wunderground v.1.13,2013-01-24 11:35:00,
2013-01-24 04:39:00,15.1,9.2,30.23,SSE,167,5.0,5.0,77,0.00,,,0.00,Wunderground v.1.13,2013-01-24 11:39:00,
2013-01-24 04:44:00,15.1,9.2,30.23,SE,142,4.0,14.0,77,0.00,,,0.00,Wunderground v.1.13,2013-01-24 11:44:00,
2013-01-24 04:49:00,15.1,9.5,30.22,South,180,5.0,5.0,78,0.00,,,0.00,Wunderground v.1.13,2013-01-24 11:49:00,
2013-01-24 04:54:00,15.2,9.6,30.22,South,182,5.0,14.0,78,0.00,,,0.00,Wunderground v.1.13,2013-01-24 11:54:00,
2013-01-24 04:59:00,15.4,10.1,30.22,South,179,5.0,5.0,79,0.00,,,0.00,Wunderground v.1.13,2013-01-24 11:59:00,
2013-01-24 05:04:00,15.6,10.2,30.22,South,177,5.0,5.0,79,0.00,,,0.00,Wunderground v.1.13,2013-01-24 12:04:00,
2013-01-24 05:10:00,15.6,10.5,30.22,South,186,4.0,4.0,80,0.00,,,0.00,Wunderground v.1.13,2013-01-24 12:10:00,
2013-01-24 05:15:00,15.6,10.5,30.22,South,178,4.0,14.0,80,0.00,,,0.00,Wunderground v.1.13,2013-01-24 12:15:00,
2013-01-24 05:20:00,15.7,10.6,30.22,South,185,5.0,14.0,80,0.00,,,0.00,Wunderground v.1.13,2013-01-24 12:20:00,
2013-01-24 05:30:00,15.7,10.6,30.22,SSE,167,4.0,14.0,80,0.00,,,0.00,Wunderground v.1.13,2013-01-24 12:30:00,
2013-01-24 05:35:00,15.7,10.9,30.22,South,178,4.0,4.0,81,0.00,,,0.00,Wunderground v.1.13,2013-01-24 12:35:00,
2013-01-24 05:40:00,15.7,10.9,30.22,South,176,5.0,5.0,81,0.00,,,0.00,Wunderground v.1.13,2013-01-24 12:40:00,
2013-01-24 05:44:00,15.6,10.8,30.22,SSE,153,5.0,14.0,81,0.00,,,0.00,Wunderground v.1.13,2013-01-24 12:44:00,
2013-01-24 05:49:00,15.4,10.6,30.20,South,172,5.0,14.0,81,0.00,,,0.00,Wunderground v.1.13,2013-01-24 12:49:00,
2013-01-24 05:54:00,15.4,10.6,30.20,South,178,6.0,6.0,81,0.00,,,0.00,Wunderground v.1.13,2013-01-24 12:54:00,
2013-01-24 06:00:00,15.4,10.9,30.20,SSE,157,5.0,14.0,82,0.00,,,0.00,Wunderground v.1.13,2013-01-24 13:00:00,
2013-01-24 06:04:00,15.4,10.9,30.21,South,178,6.0,6.0,82,0.00,,,0.00,Wunderground v.1.13,2013-01-24 13:04:00,
2013-01-24 06:09:00,15.4,10.9,30.21,SSE,163,6.0,6.0,82,0.00,,,0.00,Wunderground v.1.13,2013-01-24 13:09:00,
2013-01-24 06:20:00,15.4,10.9,30.21,SSE,147,4.0,14.0,82,0.00,,,0.00,Wunderground v.1.13,2013-01-24 13:20:00,
2013-01-24 06:25:00,15.1,10.6,30.21,SSE,157,4.0,16.0,82,0.00,,,0.00,Wunderground v.1.13,2013-01-24 13:25:00,
2013-01-24 06:29:00,14.9,10.1,30.21,South,171,6.0,6.0,81,0.00,,,0.00,Wunderground v.1.13,2013-01-24 13:29:00,
2013-01-24 06:34:00,14.8,10.0,30.21,SSW,193,6.0,6.0,81,0.00,,,0.00,Wunderground v.1.13,2013-01-24 13:34:00,
2013-01-24 06:40:00,14.4,9.6,30.21,South,171,4.0,14.0,81,0.00,,,0.00,Wunderground v.1.13,2013-01-24 13:40:00,
2013-01-24 06:45:00,14.1,9.3,30.21,SSE,153,4.0,14.0,81,0.00,,,0.00,Wunderground v.1.13,2013-01-24 13:45:00,
2013-01-24 06:49:00,14.0,9.2,30.20,SSE,159,5.0,14.0,81,0.00,,,0.00,Wunderground v.1.13,2013-01-24 13:49:00,
2013-01-24 06:54:00,13.8,9.0,30.20,SSE,161,5.0,5.0,81,0.00,,,0.00,Wunderground v.1.13,2013-01-24 13:54:00,
2013-01-24 07:00:00,13.8,9.0,30.20,South,170,4.0,4.0,81,0.00,,,0.00,Wunderground v.1.13,2013-01-24 14:00:00,
2013-01-24 07:09:00,13.6,8.9,30.20,SSE,155,4.0,14.0,81,0.00,,,0.00,Wunderground v.1.13,2013-01-24 14:09:00,
2013-01-24 07:14:00,13.8,9.0,30.20,South,184,5.0,14.0,81,0.00,,,0.00,Wunderground v.1.13,2013-01-24 14:14:00,
2013-01-24 07:20:00,14.0,9.5,30.20,South,178,5.0,5.0,82,0.00,,,0.00,Wunderground v.1.13,2013-01-24 14:20:00,
2013-01-24 07:25:00,14.1,9.6,30.20,South,176,5.0,14.0,82,0.00,,,0.00,Wunderground v.1.13,2013-01-24 14:25:00,
2013-01-24 07:30:00,14.3,9.8,30.20,South,184,4.0,14.0,82,0.00,,,0.00,Wunderground v.1.13,2013-01-24 14:30:00,
2013-01-24 07:34:00,14.3,9.8,30.20,SSE,167,4.0,14.0,82,0.00,,,0.00,Wunderground v.1.13,2013-01-24 14:34:00,
2013-01-24 07:39:00,14.4,9.9,30.20,South,170,5.0,5.0,82,0.00,,,0.00,Wunderground v.1.13,2013-01-24 14:39:00,
2013-01-24 07:44:00,14.6,10.1,30.20,SSE,167,5.0,14.0,82,0.00,,,0.00,Wunderground v.1.13,2013-01-24 14:44:00,
2013-01-24 07:49:00,14.6,10.1,30.19,South,173,6.0,14.0,82,0.00,,,0.00,Wunderground v.1.13,2013-01-24 14:49:00,
2013-01-24 07:54:00,14.8,10.3,30.19,SSW,200,7.0,14.0,82,0.00,,,0.00,Wunderground v.1.13,2013-01-24 14:54:00,
2013-01-24 08:00:00,14.8,10.3,30.19,SSW,203,6.0,6.0,82,0.00,,,0.00,Wunderground v.1.13,2013-01-24 15:00:00,
2013-01-24 08:05:00,15.1,10.6,30.19,SE,145,5.0,5.0,82,0.00,,,0.00,Wunderground v.1.13,2013-01-24 15:05:00,
2013-01-24 08:09:00,15.1,10.6,30.19,South,182,4.0,4.0,82,0.00,,,0.00,Wunderground v.1.13,2013-01-24 15:09:00,
2013-01-24 08:14:00,15.2,10.7,30.19,SSE,162,5.0,14.0,82,0.00,,,0.00,Wunderground v.1.13,2013-01-24 15:14:00,
2013-01-24 08:19:00,15.4,10.6,30.18,SSW,194,5.0,5.0,81,0.00,,,0.00,Wunderground v.1.13,2013-01-24 15:19:00,
2013-01-24 08:24:00,15.6,10.8,30.18,SW,216,4.0,4.0,81,0.00,,,0.00,Wunderground v.1.13,2013-01-24 15:24:00,
2013-01-24 08:30:00,15.7,10.9,30.18,South,172,4.0,14.0,81,0.00,,,0.00,Wunderground v.1.13,2013-01-24 15:30:00,
2013-01-24 08:35:00,16.1,11.0,30.18,SSW,208,5.0,14.0,80,0.00,,,0.00,Wunderground v.1.13,2013-01-24 15:35:00,
2013-01-24 08:44:00,16.2,11.1,30.18,South,173,5.0,14.0,80,0.00,,,0.00,Wunderground v.1.13,2013-01-24 15:44:00,
2013-01-24 08:49:00,16.2,11.1,30.18,SSE,165,5.0,14.0,80,0.00,,,0.00,Wunderground v.1.13,2013-01-24 15:49:00,
2013-01-24 08:54:00,16.2,11.1,30.18,South,183,6.0,14.0,80,0.00,,,0.00,Wunderground v.1.13,2013-01-24 15:54:00,
2013-01-24 09:05:00,16.7,11.6,30.18,SSW,209,4.0,14.0,80,0.00,,,0.00,Wunderground v.1.13,2013-01-24 16:05:00,
2013-01-24 09:10:00,17.0,11.6,30.18,South,170,3.0,14.0,79,0.00,,,0.00,Wunderground v.1.13,2013-01-24 16:10:00,
2013-01-24 09:19:00,17.2,11.8,30.18,South,188,5.0,5.0,79,0.00,,,0.00,Wunderground v.1.13,2013-01-24 16:19:00,
2013-01-24 09:25:00,17.3,11.9,30.18,SSW,192,4.0,14.0,79,0.00,,,0.00,Wunderground v.1.13,2013-01-24 16:25:00,
2013-01-24 09:30:00,17.5,12.1,30.18,SE,146,4.0,14.0,79,0.00,,,0.00,Wunderground v.1.13,2013-01-24 16:30:00,
2013-01-24 09:39:00,18.1,12.4,30.18,SSE,150,5.0,14.0,78,0.00,,,0.00,Wunderground v.1.13,2013-01-24 16:39:00,
2013-01-24 09:49:00,18.8,13.1,30.17,SSW,200,4.0,4.0,78,0.00,,,0.00,Wunderground v.1.13,2013-01-24 16:49:00,
2013-01-24 09:59:00,19.2,13.2,30.17,SSE,161,7.0,7.0,77,0.00,,,0.00,Wunderground v.1.13,2013-01-24 16:59:00,
2013-01-24 10:05:00,19.1,13.1,30.17,South,189,7.0,14.0,77,0.00,,,0.00,Wunderground v.1.13,2013-01-24 17:05:00,
2013-01-24 10:10:00,19.2,13.2,30.17,SSW,213,6.0,6.0,77,0.00,,,0.00,Wunderground v.1.13,2013-01-24 17:10:00,
2013-01-24 10:14:00,19.4,13.4,30.17,SSE,163,5.0,14.0,77,0.00,,,0.00,Wunderground v.1.13,2013-01-24 17:14:00,
2013-01-24 10:19:00,19.4,13.4,30.16,South,173,5.0,14.0,77,0.00,,,0.00,Wunderground v.1.13,2013-01-24 17:19:00,
2013-01-24 10:24:00,19.4,13.4,30.16,South,175,5.0,5.0,77,0.00,,,0.00,Wunderground v.1.13,2013-01-24 17:24:00,
2013-01-24 10:30:00,19.4,13.4,30.16,South,180,6.0,14.0,77,0.00,,,0.00,Wunderground v.1.13,2013-01-24 17:30:00,
2013-01-24 10:34:00,19.4,13.4,30.15,South,183,5.0,5.0,77,0.00,,,0.00,Wunderground v.1.13,2013-01-24 17:34:00,
2013-01-24 10:39:00,19.5,13.8,30.15,SSW,209,5.0,14.0,78,0.00,,,0.00,Wunderground v.1.13,2013-01-24 17:39:00,
2013-01-24 10:44:00,19.7,13.7,30.15,SSE,167,4.0,14.0,77,0.00,,,0.00,Wunderground v.1.13,2013-01-24 17:44:00,
2013-01-24 10:50:00,19.5,13.5,30.14,SSW,192,5.0,5.0,77,0.00,,,0.00,Wunderground v.1.13,2013-01-24 17:50:00,
2013-01-24 10:55:00,19.7,13.7,30.14,SSW,209,5.0,14.0,77,0.00,,,0.00,Wunderground v.1.13,2013-01-24 17:55:00,
2013-01-24 11:04:00,20.0,13.9,30.13,SSW,202,5.0,14.0,77,0.00,,,0.00,Wunderground v.1.13,2013-01-24 18:04:00,
2013-01-24 11:09:00,20.2,14.1,30.13,South,172,5.0,5.0,77,0.00,,,0.00,Wunderground v.1.13,2013-01-24 18:09:00,
2013-01-24 11:14:00,20.5,14.4,30.13,SSE,159,5.0,14.0,77,0.00,,,0.00,Wunderground v.1.13,2013-01-24 18:14:00,
2013-01-24 11:20:00,20.6,14.5,30.12,South,177,4.0,4.0,77,0.00,,,0.00,Wunderground v.1.13,2013-01-24 18:20:00,
2013-01-24 11:25:00,21.1,15.0,30.12,South,171,4.0,4.0,77,0.00,,,0.00,Wunderground v.1.13,2013-01-24 18:25:00,
2013-01-24 11:30:00,21.4,15.0,30.12,South,186,4.0,4.0,76,0.00,,,0.00,Wunderground v.1.13,2013-01-24 18:30:00,
2013-01-24 11:35:00,21.8,15.4,30.10,SSW,198,5.0,5.0,76,0.00,,,0.00,Wunderground v.1.13,2013-01-24 18:35:00,
2013-01-24 11:39:00,21.9,15.5,30.10,SSW,199,6.0,14.0,76,0.00,,,0.00,Wunderground v.1.13,2013-01-24 18:39:00,
2013-01-24 11:44:00,22.4,16.0,30.10,SW,221,6.0,6.0,76,0.00,,,0.00,Wunderground v.1.13,2013-01-24 18:44:00,
2013-01-24 11:49:00,22.7,16.3,30.10,South,186,5.0,5.0,76,0.00,,,0.00,Wunderground v.1.13,2013-01-24 18:49:00,
2013-01-24 11:55:00,23.2,16.4,30.10,SSW,205,4.0,4.0,75,0.00,,,0.00,Wunderground v.1.13,2013-01-24 18:55:00,
2013-01-24 12:00:00,23.6,16.8,30.10,South,177,4.0,14.0,75,0.00,,,0.00,Wunderground v.1.13,2013-01-24 19:00:00,
2013-01-24 12:05:00,24.1,17.0,30.08,SSW,194,3.0,14.0,74,0.00,,,0.00,Wunderground v.1.13,2013-01-24 19:05:00,
2013-01-24 12:09:00,24.4,17.3,30.08,SSE,164,3.0,3.0,74,0.00,,,0.00,Wunderground v.1.13,2013-01-24 19:09:00,
2013-01-24 12:19:00,25.1,17.7,30.07,South,191,3.0,14.0,73,0.00,,,0.00,Wunderground v.1.13,2013-01-24 19:19:00,
2013-01-24 12:25:00,25.1,17.7,30.07,SSW,202,4.0,14.0,73,0.00,,,0.00,Wunderground v.1.13,2013-01-24 19:25:00,
2013-01-24 12:30:00,25.3,17.9,30.07,SW,215,5.0,5.0,73,0.00,,,0.00,Wunderground v.1.13,2013-01-24 19:30:00,
2013-01-24 12:35:00,25.6,18.1,30.06,SSW,209,4.0,14.0,73,0.00,,,0.00,Wunderground v.1.13,2013-01-24 19:35:00,
2013-01-24 12:40:00,25.6,17.8,30.06,SSW,205,4.0,4.0,72,0.00,,,0.00,Wunderground v.1.13,2013-01-24 19:40:00,
2013-01-24 12:45:00,26.0,18.2,30.06,South,171,3.0,14.0,72,0.00,,,0.00,Wunderground v.1.13,2013-01-24 19:45:00,
2013-01-24 12:49:00,26.1,18.3,30.05,SSW,197,3.0,14.0,72,0.00,,,0.00,Wunderground v.1.13,2013-01-24 19:49:00,
2013-01-24 12:54:00,26.6,18.8,30.05,SSW,198,4.0,4.0,72,0.00,,,0.00,Wunderground v.1.13,2013-01-24 19:54:00,
2013-01-24 13:05:00,27.6,19.1,30.04,South,184,5.0,5.0,70,0.00,,,0.00,Wunderground v.1.13,2013-01-24 20:05:00,
2013-01-24 13:15:00,28.4,19.5,30.04,South,175,3.0,3.0,69,0.00,,,0.00,Wunderground v.1.13,2013-01-24 20:15:00,
2013-01-24 13:19:00,28.7,19.8,30.04,South,171,2.0,14.0,69,0.00,,,0.00,Wunderground v.1.13,2013-01-24 20:19:00,
2013-01-24 13:24:00,29.4,20.1,30.04,SSW,201,2.0,14.0,68,0.00,,,0.00,Wunderground v.1.13,2013-01-24 20:24:00,
2013-01-24 13:35:00,30.3,20.6,30.04,SSE,165,2.0,2.0,67,0.00,,,0.00,Wunderground v.1.13,2013-01-24 20:35:00,
2013-01-24 13:40:00,30.7,21.0,30.04,SW,219,1.0,1.0,67,0.00,,,0.00,Wunderground v.1.13,2013-01-24 20:40:00,
2013-01-24 13:45:00,31.2,21.2,30.04,South,186,1.0,1.0,66,0.00,,,0.00,Wunderground v.1.13,2013-01-24 20:45:00,
2013-01-24 13:55:00,31.6,21.2,30.01,SSW,207,1.0,1.0,65,0.00,,,0.00,Wunderground v.1.13,2013-01-24 20:55:00,
2013-01-24 14:00:00,31.9,21.1,30.01,SSW,202,2.0,2.0,64,0.00,,,0.00,Wunderground v.1.13,2013-01-24 21:00:00,
2013-01-24 14:05:00,32.2,21.4,30.02,South,187,2.0,14.0,64,0.00,,,0.00,Wunderground v.1.13,2013-01-24 21:05:00,
2013-01-24 14:10:00,32.2,21.4,30.02,SSW,192,2.0,2.0,64,0.00,,,0.00,Wunderground v.1.13,2013-01-24 21:10:00,
2013-01-24 14:19:00,32.5,21.7,30.02,South,170,1.0,1.0,64,0.00,,,0.00,Wunderground v.1.13,2013-01-24 21:19:00,
2013-01-24 14:24:00,32.9,22.0,30.02,SSE,154,2.0,2.0,64,0.00,,,0.00,Wunderground v.1.13,2013-01-24 21:24:00,
2013-01-24 14:30:00,33.4,21.8,30.02,South,184,1.0,14.0,62,0.00,,,0.00,Wunderground v.1.13,2013-01-24 21:30:00,
2013-01-24 14:35:00,33.7,22.1,30.01,SSE,147,2.0,14.0,62,0.00,,,0.00,Wunderground v.1.13,2013-01-24 21:35:00,
2013-01-24 14:44:00,34.0,22.0,30.01,SSE,153,2.0,2.0,61,0.00,,,0.00,Wunderground v.1.13,2013-01-24 21:44:00,
2013-01-24 14:55:00,34.1,22.0,30.00,SSW,202,1.0,1.0,61,0.00,,,0.00,Wunderground v.1.13,2013-01-24 21:55:00,
2013-01-24 15:00:00,34.4,22.3,30.00,South,188,1.0,14.0,61,0.00,,,0.00,Wunderground v.1.13,2013-01-24 22:00:00,
2013-01-24 15:09:00,34.9,22.8,30.00,SSW,213,1.0,1.0,61,0.00,,,0.00,Wunderground v.1.13,2013-01-24 22:09:00,
2013-01-24 15:15:00,35.5,23.0,30.00,South,190,1.0,14.0,60,0.00,,,0.00,Wunderground v.1.13,2013-01-24 22:15:00,
2013-01-24 15:20:00,35.8,22.9,30.00,South,180,1.0,1.0,59,0.00,,,0.00,Wunderground v.1.13,2013-01-24 22:20:00,
2013-01-24 15:25:00,36.3,23.3,30.00,SSW,203,1.0,1.0,59,0.00,,,0.00,Wunderground v.1.13,2013-01-24 22:25:00,
2013-01-24 15:30:00,36.8,23.4,30.00,South,190,1.0,1.0,58,0.00,,,0.00,Wunderground v.1.13,2013-01-24 22:30:00,
2013-01-24 15:34:00,37.0,23.2,30.00,SW,215,1.0,14.0,57,0.00,,,0.00,Wunderground v.1.13,2013-01-24 22:34:00,
2013-01-24 15:39:00,37.3,23.4,30.00,SW,232,1.0,14.0,57,0.00,,,0.00,Wunderground v.1.13,2013-01-24 22:39:00,
2013-01-24 15:44:00,37.8,23.9,30.00,SSW,200,1.0,14.0,57,0.00,,,0.00,Wunderground v.1.13,2013-01-24 22:44:00,
2013-01-24 15:54:00,38.3,24.0,30.00,SSW,211,2.0,2.0,56,0.00,,,0.00,Wunderground v.1.13,2013-01-24 22:54:00,
2013-01-24 16:00:00,38.0,23.7,30.00,South,190,2.0,2.0,56,0.00,,,0.00,Wunderground v.1.13,2013-01-24 23:00:00,
2013-01-24 16:05:00,37.9,24.0,30.00,South,190,1.0,1.0,57,0.00,,,0.00,Wunderground v.1.13,2013-01-24 23:05:00,
2013-01-24 16:09:00,37.8,23.9,30.00,SSW,209,1.0,14.0,57,0.00,,,0.00,Wunderground v.1.13,2013-01-24 23:09:00,
2013-01-24 16:14:00,37.5,23.6,30.00,SSW,194,2.0,2.0,57,0.00,,,0.00,Wunderground v.1.13,2013-01-24 23:14:00,
2013-01-24 16:19:00,37.2,23.8,30.00,SSW,194,1.0,1.0,58,0.00,,,0.00,Wunderground v.1.13,2013-01-24 23:19:00,
2013-01-24 16:25:00,37.0,23.6,30.00,SSW,194,0.0,14.0,58,0.00,,,0.00,Wunderground v.1.13,2013-01-24 23:25:00,
2013-01-24 16:30:00,37.0,23.6,30.00,SSW,203,0.0,14.0,58,0.00,,,0.00,Wunderground v.1.13,2013-01-24 23:30:00,
2013-01-24 16:40:00,36.9,23.9,30.00,SSW,204,0.0,14.0,59,0.00,,,0.00,Wunderground v.1.13,2013-01-24 23:40:00,
2013-01-24 16:44:00,36.9,23.9,30.00,SSW,204,0.0,14.0,59,0.00,,,0.00,Wunderground v.1.13,2013-01-24 23:44:00,
2013-01-24 16:49:00,36.9,23.9,30.00,SSW,205,0.0,14.0,59,0.00,,,0.00,Wunderground v.1.13,2013-01-24 23:49:00,
2013-01-24 17:00:00,36.8,24.2,30.00,SW,234,0.0,14.0,60,0.00,,,0.00,Wunderground v.1.13,2013-01-25 00:00:00,
2013-01-24 17:05:00,36.8,24.2,30.01,SW,234,0.0,14.0,60,0.00,,,0.00,Wunderground v.1.13,2013-01-25 00:05:00,
2013-01-24 17:09:00,36.8,24.2,30.01,SW,234,0.0,14.0,60,0.00,,,0.00,Wunderground v.1.13,2013-01-25 00:09:00,
2013-01-24 17:14:00,36.8,24.2,30.01,SW,235,0.0,14.0,60,0.00,,,0.00,Wunderground v.1.13,2013-01-25 00:14:00,
2013-01-24 17:19:00,36.8,24.2,30.01,SW,234,0.0,14.0,60,0.00,,,0.00,Wunderground v.1.13,2013-01-25 00:19:00,
2013-01-24 17:25:00,36.6,24.0,30.01,SW,234,0.0,14.0,60,0.00,,,0.00,Wunderground v.1.13,2013-01-25 00:25:00,
2013-01-24 17:29:00,36.3,23.7,30.01,SW,234,0.0,14.0,60,0.00,,,0.00,Wunderground v.1.13,2013-01-25 00:29:00,
2013-01-24 17:35:00,36.2,24.0,30.01,SW,234,0.0,14.0,61,0.00,,,0.00,Wunderground v.1.13,2013-01-25 00:35:00,
2013-01-24 17:40:00,36.0,23.8,30.01,WSW,244,0.0,14.0,61,0.00,,,0.00,Wunderground v.1.13,2013-01-25 00:40:00,
2013-01-24 17:45:00,35.9,23.7,30.01,WSW,244,0.0,14.0,61,0.00,,,0.00,Wunderground v.1.13,2013-01-25 00:45:00,
2013-01-24 17:50:00,35.8,24.0,30.02,WSW,244,0.0,14.0,62,0.00,,,0.00,Wunderground v.1.13,2013-01-25 00:50:00,
2013-01-24 17:59:00,34.9,23.2,30.02,WSW,244,0.0,14.0,62,0.00,,,0.00,Wunderground v.1.13,2013-01-25 00:59:00,
2013-01-24 18:04:00,34.0,22.7,30.03,WSW,244,0.0,14.0,63,0.00,,,0.00,Wunderground v.1.13,2013-01-25 01:04:00,
2013-01-24 18:09:00,33.4,22.5,30.03,WSW,244,0.0,14.0,64,0.00,,,0.00,Wunderground v.1.13,2013-01-25 01:09:00,
2013-01-24 18:15:00,32.8,22.3,30.03,WSW,244,0.0,14.0,65,0.00,,,0.00,Wunderground v.1.13,2013-01-25 01:15:00,
2013-01-24 18:19:00,32.4,22.7,30.04,WSW,244,0.0,14.0,67,0.00,,,0.00,Wunderground v.1.13,2013-01-25 01:19:00,
2013-01-24 18:24:00,32.2,22.8,30.04,WSW,244,0.0,14.0,68,0.00,,,0.00,Wunderground v.1.13,2013-01-25 01:24:00,
2013-01-24 18:29:00,32.5,23.1,30.04,WSW,244,0.0,14.0,68,0.00,,,0.00,Wunderground v.1.13,2013-01-25 01:29:00,
2013-01-24 18:35:00,32.2,22.5,30.04,WSW,244,0.0,14.0,67,0.00,,,0.00,Wunderground v.1.13,2013-01-25 01:35:00,
2013-01-24 18:40:00,31.6,21.9,30.04,WSW,244,0.0,14.0,67,0.00,,,0.00,Wunderground v.1.13,2013-01-25 01:40:00,
2013-01-24 18:44:00,31.3,22.3,30.04,WNW,284,0.0,14.0,69,0.00,,,0.00,Wunderground v.1.13,2013-01-25 01:44:00,
2013-01-24 18:49:00,31.5,22.8,30.06,WNW,284,0.0,14.0,70,0.00,,,0.00,Wunderground v.1.13,2013-01-25 01:49:00,
2013-01-24 18:55:00,31.6,22.9,30.06,WNW,284,0.0,14.0,70,0.00,,,0.00,Wunderground v.1.13,2013-01-25 01:55:00,
2013-01-24 19:04:00,31.0,22.4,30.06,WNW,284,0.0,14.0,70,0.00,,,0.00,Wunderground v.1.13,2013-01-25 02:04:00,
2013-01-24 19:09:00,30.6,22.0,30.06,WNW,284,0.0,14.0,70,0.00,,,0.00,Wunderground v.1.13,2013-01-25 02:09:00,
2013-01-24 19:15:00,30.1,21.5,30.06,WNW,284,0.0,14.0,70,0.00,,,0.00,Wunderground v.1.13,2013-01-25 02:15:00,
2013-01-24 19:19:00,29.5,20.9,30.07,WNW,284,0.0,14.0,70,0.00,,,0.00,Wunderground v.1.13,2013-01-25 02:19:00,
2013-01-24 19:24:00,29.1,20.9,30.07,WNW,284,0.0,14.0,71,0.00,,,0.00,Wunderground v.1.13,2013-01-25 02:24:00,
2013-01-24 19:34:00,28.4,20.5,30.07,WNW,284,0.0,14.0,72,0.00,,,0.00,Wunderground v.1.13,2013-01-25 02:34:00,
2013-01-24 19:40:00,28.2,20.7,30.07,WNW,284,0.0,14.0,73,0.00,,,0.00,Wunderground v.1.13,2013-01-25 02:40:00,
2013-01-24 19:45:00,27.9,20.4,30.07,WNW,284,0.0,14.0,73,0.00,,,0.00,Wunderground v.1.13,2013-01-25 02:45:00,
2013-01-24 19:50:00,27.6,20.1,30.08,WNW,284,0.0,14.0,73,0.00,,,0.00,Wunderground v.1.13,2013-01-25 02:50:00,
2013-01-24 19:54:00,27.3,19.8,30.08,WNW,284,0.0,14.0,73,0.00,,,0.00,Wunderground v.1.13,2013-01-25 02:54:00,
2013-01-24 19:59:00,27.0,19.8,30.08,WNW,284,0.0,14.0,74,0.00,,,0.00,Wunderground v.1.13,2013-01-25 02:59:00,
2013-01-24 20:04:00,26.9,19.7,30.09,WNW,284,0.0,14.0,74,0.00,,,0.00,Wunderground v.1.13,2013-01-25 03:04:00,
2013-01-24 20:10:00,26.7,19.8,30.09,WNW,284,0.0,14.0,75,0.00,,,0.00,Wunderground v.1.13,2013-01-25 03:10:00,
2013-01-24 20:15:00,26.7,19.8,30.09,WNW,284,0.0,14.0,75,0.00,,,0.00,Wunderground v.1.13,2013-01-25 03:15:00,
2013-01-24 20:20:00,26.9,20.3,30.09,WNW,284,0.0,14.0,76,0.00,,,0.00,Wunderground v.1.13,2013-01-25 03:20:00,
2013-01-24 20:29:00,27.2,20.6,30.09,WNW,284,0.0,14.0,76,0.00,,,0.00,Wunderground v.1.13,2013-01-25 03:29:00,
2013-01-24 20:34:00,27.2,20.6,30.09,WNW,284,0.0,14.0,76,0.00,,,0.00,Wunderground v.1.13,2013-01-25 03:34:00,
2013-01-24 20:40:00,27.3,20.7,30.09,WNW,284,0.0,14.0,76,0.00,,,0.00,Wunderground v.1.13,2013-01-25 03:40:00,
2013-01-24 20:44:00,27.3,20.7,30.09,WNW,284,0.0,14.0,76,0.00,,,0.00,Wunderground v.1.13,2013-01-25 03:44:00,
2013-01-24 20:50:00,27.2,20.6,30.09,WNW,284,0.0,14.0,76,0.00,,,0.00,Wunderground v.1.13,2013-01-25 03:50:00,
2013-01-24 20:54:00,27.3,20.7,30.09,WNW,284,0.0,14.0,76,0.00,,,0.00,Wunderground v.1.13,2013-01-25 03:54:00,
2013-01-24 20:59:00,27.8,21.5,30.09,WNW,284,0.0,14.0,77,0.00,,,0.00,Wunderground v.1.13,2013-01-25 03:59:00,
2013-01-24 21:04:00,29.8,22.8,30.10,WNW,284,0.0,14.0,75,0.00,,,0.00,Wunderground v.1.13,2013-01-25 04:04:00,
2013-01-24 21:10:00,32.5,23.5,30.10,NW,316,0.0,14.0,69,0.00,,,0.00,Wunderground v.1.13,2013-01-25 04:10:00,
2013-01-24 21:15:00,35.2,25.0,30.10,NW,321,0.0,14.0,66,0.00,,,0.00,Wunderground v.1.13,2013-01-25 04:15:00,
2013-01-24 21:20:00,37.0,23.6,30.11,NW,316,0.0,14.0,58,0.00,,,0.00,Wunderground v.1.13,2013-01-25 04:20:00,
2013-01-24 21:24:00,37.9,23.2,30.11,NNW,342,1.0,14.0,55,0.00,,,0.00,Wunderground v.1.13,2013-01-25 04:24:00,
2013-01-24 21:29:00,39.3,22.7,30.11,NNW,335,2.0,2.0,51,0.00,,,0.00,Wunderground v.1.13,2013-01-25 04:29:00,
2013-01-24 21:34:00,38.9,22.8,30.12,NNW,333,1.0,1.0,52,0.00,,,0.00,Wunderground v.1.13,2013-01-25 04:34:00,
2013-01-24 21:39:00,37.9,22.7,30.12,NNW,333,0.0,14.0,54,0.00,,,0.00,Wunderground v.1.13,2013-01-25 04:39:00,
2013-01-24 21:45:00,37.3,22.2,30.12,NNW,329,0.0,14.0,54,0.00,,,0.00,Wunderground v.1.13,2013-01-25 04:45:00,
2013-01-24 21:50:00,37.3,22.2,30.12,NNW,334,0.0,14.0,54,0.00,,,0.00,Wunderground v.1.13,2013-01-25 04:50:00,
2013-01-24 21:55:00,38.6,22.0,30.12,NNW,339,2.0,14.0,51,0.00,,,0.00,Wunderground v.1.13,2013-01-25 04:55:00,
2013-01-24 21:59:00,39.8,22.2,30.12,NW,318,5.0,14.0,49,0.00,,,0.00,Wunderground v.1.13,2013-01-25 04:59:00,
2013-01-24 22:04:00,40.3,22.1,30.13,North,360,6.0,6.0,48,0.00,,,0.00,Wunderground v.1.13,2013-01-25 05:04:00,
2013-01-24 22:10:00,40.5,22.3,30.13,NNW,332,7.0,14.0,48,0.00,,,0.00,Wunderground v.1.13,2013-01-25 05:10:00,
2013-01-24 22:14:00,40.2,22.1,30.13,NNW,346,7.0,14.0,48,0.00,,,0.00,Wunderground v.1.13,2013-01-25 05:14:00,
2013-01-24 22:19:00,40.2,22.1,30.14,North,349,7.0,7.0,48,0.00,,,0.00,Wunderground v.1.13,2013-01-25 05:19:00,
2013-01-24 22:24:00,40.2,21.6,30.14,North,351,8.0,15.0,47,0.00,,,0.00,Wunderground v.1.13,2013-01-25 05:24:00,
2013-01-24 22:35:00,39.9,21.8,30.14,NNW,336,9.0,9.0,48,0.00,,,0.00,Wunderground v.1.13,2013-01-25 05:35:00,
2013-01-24 22:40:00,39.6,21.5,30.14,NNW,333,8.0,8.0,48,0.00,,,0.00,Wunderground v.1.13,2013-01-25 05:40:00,
2013-01-24 22:45:00,39.6,22.0,30.14,NE,35,9.0,9.0,49,0.00,,,0.00,Wunderground v.1.13,2013-01-25 05:45:00,
2013-01-24 22:49:00,39.2,21.6,30.15,North,360,9.0,14.0,49,0.00,,,0.00,Wunderground v.1.13,2013-01-25 05:49:00,
2013-01-24 22:54:00,38.9,21.8,30.15,NNW,348,10.0,14.0,50,0.00,,,0.00,Wunderground v.1.13,2013-01-25 05:54:00,
2013-01-24 22:59:00,38.6,21.5,30.15,North,9,10.0,10.0,50,0.00,,,0.00,Wunderground v.1.13,2013-01-25 05:59:00,
2013-01-24 23:04:00,38.5,21.5,30.15,NNW,331,9.0,9.0,50,0.00,,,0.00,Wunderground v.1.13,2013-01-25 06:04:00,
2013-01-24 23:10:00,38.3,21.7,30.15,NNW,338,9.0,14.0,51,0.00,,,0.00,Wunderground v.1.13,2013-01-25 06:10:00,
2013-01-24 23:14:00,38.2,21.6,30.15,North,11,9.0,9.0,51,0.00,,,0.00,Wunderground v.1.13,2013-01-25 06:14:00,
2013-01-24 23:19:00,38.0,21.5,30.14,North,11,9.0,9.0,51,0.00,,,0.00,Wunderground v.1.13,2013-01-25 06:19:00,
2013-01-24 23:24:00,38.0,21.0,30.14,North,349,10.0,10.0,50,0.00,,,0.00,Wunderground v.1.13,2013-01-25 06:24:00,
2013-01-24 23:30:00,37.6,21.1,30.14,North,360,8.0,8.0,51,0.00,,,0.00,Wunderground v.1.13,2013-01-25 06:30:00,
2013-01-24 23:35:00,37.5,21.0,30.14,North,10,7.0,7.0,51,0.00,,,0.00,Wunderground v.1.13,2013-01-25 06:35:00,
2013-01-24 23:39:00,37.3,20.8,30.14,NNW,340,6.0,14.0,51,0.00,,,0.00,Wunderground v.1.13,2013-01-25 06:39:00,
2013-01-24 23:45:00,37.2,20.7,30.14,NNW,341,6.0,6.0,51,0.00,,,0.00,Wunderground v.1.13,2013-01-25 06:45:00,
2013-01-24 23:50:00,37.0,20.5,30.14,North,351,6.0,14.0,51,0.00,,,0.00,Wunderground v.1.13,2013-01-25 06:50:00,
2013-01-24 23:54:00,37.0,20.5,30.14,NNE,12,6.0,14.0,51,0.00,,,0.00,Wunderground v.1.13,2013-01-25 06:54:00,
2013-01-24 23:59:00,37.0,20.5,30.14,North,351,6.0,6.0,51,0.00,,,0.00,Wunderground v.1.13,2013-01-25 06:59:00,